{"data":{"norad_id":58786,"intl_designator":"2024-011X","name":"STARLINK-31024","alt_names":[],"object_type":"PAYLOAD","status":"ACTIVE","operator":null,"country":"US","launch_date":"2024-01-14","launch_site_code":"AFWTR","launch_vehicle":null,"mission":null,"orbit_class":"UNKNOWN","rcs_meters":null,"size_class":null,"mass_kg":null,"dimensions":null,"purposes":["comms"],"wikipedia_slug":null,"has_3d_model":false,"image_url":null,"decayed_at":null,"tle_current":{"epoch":"2026-05-25T00:17:58.296192Z","epoch_age_seconds":70583,"freshness":"FRESH","line1":"1 58786U 24011X   26145.01248028  .00000727  00000+0  36686-4 0  9993","line2":"2 58786  53.1617  17.1895 0001172  92.5205 267.5930 15.30192992131989","mean_motion":15.30192992,"eccentricity":0.0001172,"inclination_deg":53.1617,"raan_deg":17.1895,"arg_perigee_deg":92.5205,"mean_anomaly_deg":267.593,"bstar":3.6686e-5,"rev_number":13198,"period_min":94.105776691467,"perigee_km":474.43277880907,"apogee_km":476.03920943889,"semimajor_km":6853.372994124,"source":"CELESTRAK","updated_at":"2026-05-25T13:38:18.748098Z"}}}